Tracking 18980 objects as of 23-Feb-2018
HD Live streaming from Space Station
objects crossing your sky now

CZ-2D DEB

Track CZ-2D DEB now!
10-day predictions


NORAD ID: 43105
Int'l Code: 2018-002G
Perigee: 477.5 km
Apogee: 545.8 km
Inclination: 97.7 °
Period: 94.7 minutes
Semi major axis: 6882 km
RCS: Unknown
Launch date: January 9, 2018
Source: People's Republic of China (PRC)
Launch site: Taiyaun Space Center, China (TSC)

Note: This is SATELLITE DEBRIS
aabbcc
Your satellite tracking list
Your tracking list is empty




NASA's NSSDC Master Catalog

Two Line Element Set (TLE):
1 43105U 18002G   18053.41358140  .00002120  00000-0  97506-4 0  9993
2 43105  97.6963 131.5007 0049623 158.7137 201.6171 15.20433539  6726
Source of the keplerian elements: AFSPC